Retour au catalogue

NOAA 16 DEB

ActifPO
NORAD 41367·DEBRIS·🇺🇸 United States

Lancé Sep 21, 2000 depuis Vandenberg Space Force Base

Loading…

Prochains Passages (prochaines 24 heures)

TLE

FraisSource: Space-Track

Époque: Sep 11, 2026, 14:27 UTC

1 41367U 00055JL  26254.60253406  .00005137  00000-0  11121-2 0  9990
2 41367  98.9880 126.4117 0028488 243.6308 116.1963 14.58458484552711

Suivez NOAA 16 DEB en temps réel avec AllMySat

Download on the App Store